TimeEDT,TemperatureF,Dew PointF,Humidity,Sea Level PressureIn,VisibilityMPH,Wind Direction,Wind SpeedMPH,Gust SpeedMPH,PrecipitationIn,Events,Conditions,WindDirDegrees,DateUTC
12:54 AM,68.0,59.0,73,29.98,10.0,SW,9.2,-,N/A,,Clear,230,2012-10-06 04:54:00
1:54 AM,66.9,57.0,70,29.97,10.0,WSW,8.1,-,N/A,,Clear,240,2012-10-06 05:54:00
2:54 AM,68.0,55.9,65,29.95,10.0,WSW,9.2,-,N/A,,Clear,240,2012-10-06 06:54:00
3:54 AM,66.9,55.0,66,29.94,10.0,WSW,8.1,-,N/A,,Clear,240,2012-10-06 07:54:00
4:54 AM,66.0,57.0,73,29.93,10.0,WSW,6.9,-,N/A,,Clear,240,2012-10-06 08:54:00
5:54 AM,64.0,57.0,78,29.93,9.0,SW,8.1,-,N/A,,Clear,230,2012-10-06 09:54:00
6:54 AM,66.0,57.9,75,29.93,9.0,WSW,6.9,-,N/A,,Clear,250,2012-10-06 10:54:00
7:54 AM,66.9,60.1,79,29.93,7.0,SW,6.9,-,N/A,,Partly Cloudy,230,2012-10-06 11:54:00
8:54 AM,72.0,62.1,71,29.93,10.0,WSW,8.1,-,N/A,,Clear,240,2012-10-06 12:54:00
9:54 AM,75.0,59.0,57,29.91,10.0,SW,12.7,-,N/A,,Partly Cloudy,230,2012-10-06 13:54:00
10:54 AM,79.0,57.9,48,29.90,10.0,WSW,10.4,-,N/A,,Partly Cloudy,240,2012-10-06 14:54:00
11:54 AM,81.0,57.0,44,29.88,10.0,WSW,15.0,-,N/A,,Clear,240,2012-10-06 15:54:00
12:54 PM,82.0,57.9,44,29.86,10.0,West,13.8,23.0,N/A,,Clear,280,2012-10-06 16:54:00
1:54 PM,82.9,57.9,42,29.83,10.0,West,15.0,23.0,N/A,,Clear,280,2012-10-06 17:54:00
2:54 PM,82.9,57.9,42,29.83,10.0,West,13.8,21.9,N/A,,Clear,270,2012-10-06 18:54:00
3:54 PM,82.0,57.9,44,29.83,10.0,West,12.7,-,N/A,,Clear,270,2012-10-06 19:54:00
4:54 PM,79.0,59.0,50,29.85,10.0,West,9.2,-,N/A,,Overcast,280,2012-10-06 20:54:00
5:54 PM,77.0,60.8,57,29.86,10.0,NW,8.1,-,N/A,,Overcast,310,2012-10-06 21:54:00
6:54 PM,69.8,57.2,64,29.90,10.0,North,12.7,-,N/A,,Clear,350,2012-10-06 22:54:00
7:54 PM,66.9,53.1,61,29.93,10.0,NNW,10.4,-,N/A,,Clear,340,2012-10-06 23:54:00
8:54 PM,66.0,50.0,56,29.95,10.0,NNW,12.7,-,N/A,,Mostly Cloudy,340,2012-10-07 00:54:00
9:54 PM,66.0,48.0,52,29.98,10.0,North,6.9,-,N/A,,Overcast,350,2012-10-07 01:54:00
10:54 PM,64.0,46.9,54,30.00,10.0,North,11.5,-,N/A,,Overcast,360,2012-10-07 02:54:00
11:54 PM,62.1,46.0,56,30.00,10.0,North,8.1,-,N/A,,Clear,10,2012-10-07 03:54:00